7 * 24
多渠道服务支持
STARLINK-32785是美国SpaceX公司星链(Starlink)星座的一员,于2025年1月8日发射入轨。星链项目旨在构建全球卫星互联网星座,通过部署数千颗低轨卫星,为全球偏远地区、海洋空域等场景提供高速宽带互联网接入服务。该卫星运行在近地轨道,作为星座组网的组成部分,承担着星间链路、信号转发等功能,助力星链星座覆盖能力的扩展,推动全球互联网络的普及与覆盖优化。
美国
(US)
| 数据来源 | 国际轨道数据 |
| 星历时间: | 2026-04-29T22:37:25+0800 8小时前 查看轨道信息 |
| 半长轴: | 6861.168km |
| 偏心率: | 0.0001588 |
| 轨道倾角: | 43.001° |
| 近地点辐角 | 267.916° |
| 升交点赤经 | 292.523° |
| 平近点角 | 92.150° |
| 近地点: | 481.941km |
| 远地点: | 484.121km |
| 周期: | 94.266分钟 |
| 每日圈数: | 15.275861 |